Time,TemperatureF,DewpointF,PressureIn,WindDirection,WindDirectionDegrees,WindSpeedMPH,WindSpeedGustMPH,Humidity,HourlyPrecipIn,Conditions,Clouds,dailyrainin,SoftwareType,DateUTC
2013-01-16 00:03:00,34.0,33.0,-100.00,North,0,1.0,8.0,99,0.04,,,-99.99,,2013-01-16 05:03:00,
2013-01-16 00:12:00,34.0,33.0,-100.00,North,0,1.0,8.0,99,0.04,,,-99.99,,2013-01-16 05:12:00,
2013-01-16 00:22:00,34.0,33.0,-100.00,ENE,60,1.0,4.0,99,0.13,,,-99.99,,2013-01-16 05:22:00,
2013-01-16 00:32:00,34.0,33.0,-100.00,ENE,60,1.0,4.0,99,0.13,,,-99.99,,2013-01-16 05:32:00,
2013-01-16 00:42:00,34.0,33.0,-100.00,NNE,15,2.0,6.0,99,0.10,,,-99.99,,2013-01-16 05:42:00,
2013-01-16 00:53:00,34.0,33.0,-100.00,NE,40,2.0,6.0,99,0.10,,,-99.99,,2013-01-16 05:53:00,
2013-01-16 01:03:00,34.0,33.0,-100.00,NE,40,2.0,6.0,99,0.10,,,-99.99,,2013-01-16 06:03:00,
2013-01-16 01:12:00,34.0,33.0,-100.00,NE,40,2.0,6.0,99,0.10,,,-99.99,,2013-01-16 06:12:00,
2013-01-16 01:22:00,33.0,33.0,-100.00,NE,35,2.0,6.0,99,0.18,,,-99.99,,2013-01-16 06:22:00,
2013-01-16 01:32:00,33.0,33.0,-100.00,NE,35,2.0,6.0,99,0.18,,,-99.99,,2013-01-16 06:32:00,
2013-01-16 01:43:00,33.0,33.0,-100.00,NE,55,1.0,6.0,99,0.18,,,-99.99,,2013-01-16 06:43:00,
2013-01-16 01:53:00,33.0,33.0,-100.00,NNE,20,1.0,5.0,99,0.04,,,-99.99,,2013-01-16 06:53:00,
2013-01-16 02:02:00,33.0,33.0,-100.00,NNE,20,1.0,5.0,99,0.04,,,-99.99,,2013-01-16 07:02:00,
2013-01-16 02:12:00,33.0,33.0,-100.00,NNE,20,1.0,4.0,99,0.16,,,-99.99,,2013-01-16 07:12:00,
2013-01-16 02:22:00,33.0,33.0,-100.00,NNW,345,1.0,6.0,99,0.08,,,-99.99,,2013-01-16 07:22:00,
2013-01-16 02:33:00,33.0,33.0,-100.00,NNW,345,1.0,6.0,99,0.08,,,-99.99,,2013-01-16 07:33:00,
2013-01-16 02:42:00,33.0,33.0,-100.00,NE,55,0.0,4.0,99,0.07,,,-99.99,,2013-01-16 07:42:00,
2013-01-16 02:52:00,33.0,33.0,-100.00,North,0,0.0,2.0,99,0.03,,,-99.99,,2013-01-16 07:52:00,
2013-01-16 03:02:00,33.0,33.0,-100.00,North,0,0.0,2.0,99,0.03,,,-99.99,,2013-01-16 08:02:00,
2013-01-16 03:12:00,33.0,33.0,-100.00,East,80,1.0,3.0,99,0.01,,,-99.99,,2013-01-16 08:12:00,
2013-01-16 03:22:00,33.0,33.0,-100.00,NNE,20,0.0,2.0,99,0.00,,,-99.99,,2013-01-16 08:22:00,
2013-01-16 03:32:00,33.0,33.0,-100.00,NNE,20,0.0,2.0,99,0.00,,,-99.99,,2013-01-16 08:32:00,
2013-01-16 03:42:00,33.0,33.0,-100.00,NNE,20,0.0,2.0,99,0.00,,,-99.99,,2013-01-16 08:42:00,
2013-01-16 03:52:00,33.0,33.0,-100.00,East,95,0.0,1.0,99,0.00,,,-99.99,,2013-01-16 08:52:00,
2013-01-16 04:02:00,33.0,33.0,-100.00,East,95,0.0,1.0,99,0.00,,,-99.99,,2013-01-16 09:02:00,
2013-01-16 04:12:00,33.0,33.0,-100.00,South,180,0.0,2.0,99,0.00,,,-99.99,,2013-01-16 09:12:00,
2013-01-16 04:22:00,33.0,33.0,-100.00,North,350,1.0,4.0,99,0.00,,,-99.99,,2013-01-16 09:22:00,
2013-01-16 04:32:00,33.0,33.0,-100.00,North,350,1.0,4.0,99,0.00,,,-99.99,,2013-01-16 09:32:00,
2013-01-16 04:42:00,34.0,33.0,-100.00,NNE,15,1.0,6.0,99,0.00,,,-99.99,,2013-01-16 09:42:00,
2013-01-16 04:52:00,33.0,33.0,-100.00,East,85,1.0,6.0,99,0.00,,,-99.99,,2013-01-16 09:52:00,
2013-01-16 05:02:00,33.0,33.0,-100.00,East,85,1.0,6.0,99,0.00,,,-99.99,,2013-01-16 10:02:00,
2013-01-16 05:12:00,33.0,33.0,-100.00,North,355,1.0,5.0,99,0.00,,,-99.99,,2013-01-16 10:12:00,
2013-01-16 05:22:00,34.0,33.0,-100.00,NW,310,2.0,7.0,99,0.01,,,-99.99,,2013-01-16 10:22:00,
2013-01-16 05:32:00,34.0,33.0,-100.00,NW,310,2.0,7.0,99,0.01,,,-99.99,,2013-01-16 10:32:00,
2013-01-16 05:42:00,34.0,33.0,-100.00,WSW,240,1.0,6.0,99,0.00,,,-99.99,,2013-01-16 10:42:00,
2013-01-16 05:52:00,34.0,33.0,-100.00,NW,325,1.0,4.0,99,0.00,,,-99.99,,2013-01-16 10:52:00,
2013-01-16 06:02:00,34.0,33.0,-100.00,NW,325,1.0,4.0,99,0.00,,,-99.99,,2013-01-16 11:02:00,
2013-01-16 06:12:00,34.0,33.0,-100.00,WNW,285,1.0,6.0,99,0.01,,,-99.99,,2013-01-16 11:12:00,
2013-01-16 06:23:00,34.0,33.0,-100.00,NNW,345,1.0,4.0,99,0.01,,,-99.99,,2013-01-16 11:23:00,
2013-01-16 06:33:00,34.0,33.0,-100.00,NNW,345,1.0,4.0,99,0.01,,,-99.99,,2013-01-16 11:33:00,
2013-01-16 06:42:00,34.0,33.0,-100.00,NNW,345,1.0,4.0,99,0.01,,,-99.99,,2013-01-16 11:42:00,
2013-01-16 06:52:00,34.0,33.0,-100.00,WNW,295,1.0,4.0,99,0.01,,,-99.99,,2013-01-16 11:52:00,
2013-01-16 07:03:00,34.0,33.0,-100.00,WNW,295,1.0,4.0,99,0.01,,,-99.99,,2013-01-16 12:03:00,
2013-01-16 07:13:00,34.0,33.0,-100.00,NNE,30,0.0,6.0,99,0.01,,,-99.99,,2013-01-16 12:13:00,
2013-01-16 07:22:00,34.0,33.0,-100.00,West,275,0.0,4.0,99,0.01,,,-99.99,,2013-01-16 12:22:00,
2013-01-16 07:33:00,34.0,33.0,-100.00,West,275,0.0,4.0,99,0.01,,,-99.99,,2013-01-16 12:33:00,
2013-01-16 07:43:00,34.0,34.0,-100.00,South,185,0.0,4.0,99,0.00,,,-99.99,,2013-01-16 12:43:00,
2013-01-16 07:53:00,34.0,34.0,-100.00,WNW,295,1.0,6.0,99,0.03,,,-99.99,,2013-01-16 12:53:00,
2013-01-16 08:03:00,34.0,34.0,-100.00,WNW,295,1.0,6.0,99,0.03,,,-99.99,,2013-01-16 13:03:00,
2013-01-16 08:12:00,34.0,34.0,-100.00,SSW,200,0.0,5.0,99,0.00,,,-99.99,,2013-01-16 13:12:00,
2013-01-16 08:23:00,34.0,34.0,-100.00,South,190,0.0,6.0,99,0.03,,,-99.99,,2013-01-16 13:23:00,
2013-01-16 08:33:00,34.0,34.0,-100.00,South,190,0.0,6.0,99,0.03,,,-99.99,,2013-01-16 13:33:00,
2013-01-16 08:43:00,34.0,34.0,-100.00,North,350,1.0,6.0,99,0.01,,,-99.99,,2013-01-16 13:43:00,
2013-01-16 08:52:00,34.0,34.0,-100.00,SSW,195,1.0,4.0,99,0.00,,,-99.99,,2013-01-16 13:52:00,
2013-01-16 09:03:00,34.0,34.0,-100.00,SSW,195,1.0,4.0,99,0.00,,,-99.99,,2013-01-16 14:03:00,
2013-01-16 09:12:00,34.0,34.0,-100.00,South,185,1.0,5.0,99,0.00,,,-99.99,,2013-01-16 14:12:00,
2013-01-16 09:23:00,34.0,34.0,-100.00,WSW,245,1.0,6.0,99,0.00,,,-99.99,,2013-01-16 14:23:00,
2013-01-16 09:33:00,34.0,34.0,-100.00,WSW,245,1.0,6.0,99,0.00,,,-99.99,,2013-01-16 14:33:00,
2013-01-16 09:43:00,35.0,34.0,-100.00,SW,230,2.0,7.0,99,0.00,,,-99.99,,2013-01-16 14:43:00,
2013-01-16 09:53:00,35.0,34.0,-100.00,SW,225,0.0,6.0,99,0.00,,,-99.99,,2013-01-16 14:53:00,
2013-01-16 10:03:00,35.0,34.0,-100.00,SW,225,0.0,6.0,99,0.00,,,-99.99,,2013-01-16 15:03:00,
2013-01-16 10:12:00,34.0,34.0,-100.00,SW,220,0.0,5.0,99,0.00,,,-99.99,,2013-01-16 15:12:00,
2013-01-16 10:23:00,35.0,34.0,-100.00,West,275,1.0,4.0,99,0.00,,,-99.99,,2013-01-16 15:23:00,
2013-01-16 10:33:00,35.0,34.0,-100.00,West,275,1.0,4.0,99,0.00,,,-99.99,,2013-01-16 15:33:00,
2013-01-16 10:43:00,35.0,35.0,-100.00,SSW,205,0.0,3.0,99,0.00,,,-99.99,,2013-01-16 15:43:00,
2013-01-16 10:52:00,35.0,35.0,-100.00,SSE,160,0.0,4.0,99,0.00,,,-99.99,,2013-01-16 15:52:00,
2013-01-16 11:04:00,35.0,35.0,-100.00,SSE,160,0.0,4.0,99,0.00,,,-99.99,,2013-01-16 16:04:00,
2013-01-16 11:12:00,35.0,35.0,-100.00,WSW,250,0.0,5.0,99,0.00,,,-99.99,,2013-01-16 16:12:00,
2013-01-16 11:23:00,35.0,35.0,-100.00,South,185,0.0,4.0,99,0.00,,,-99.99,,2013-01-16 16:23:00,
2013-01-16 11:33:00,35.0,35.0,-100.00,South,185,0.0,4.0,99,0.00,,,-99.99,,2013-01-16 16:33:00,
2013-01-16 11:43:00,36.0,35.0,-100.00,South,185,2.0,5.0,99,0.00,,,-99.99,,2013-01-16 16:43:00,
2013-01-16 11:53:00,36.0,35.0,-100.00,SW,220,0.0,6.0,99,0.00,,,-99.99,,2013-01-16 16:53:00,
2013-01-16 12:03:00,36.0,35.0,-100.00,SW,220,0.0,6.0,99,0.00,,,-99.99,,2013-01-16 17:03:00,
2013-01-16 12:12:00,36.0,36.0,-100.00,SW,220,1.0,8.0,99,0.00,,,-99.99,,2013-01-16 17:12:00,
2013-01-16 12:23:00,36.0,36.0,-100.00,SSW,210,1.0,6.0,99,0.00,,,-99.99,,2013-01-16 17:23:00,
2013-01-16 12:33:00,36.0,36.0,-100.00,SSW,210,1.0,6.0,99,0.00,,,-99.99,,2013-01-16 17:33:00,
2013-01-16 12:44:00,36.0,36.0,-100.00,WSW,245,2.0,7.0,99,0.00,,,-99.99,,2013-01-16 17:44:00,
2013-01-16 12:53:00,37.0,36.0,-100.00,WNW,285,1.0,9.0,99,0.00,,,-99.99,,2013-01-16 17:53:00,
2013-01-16 13:03:00,37.0,36.0,-100.00,WNW,285,1.0,9.0,99,0.00,,,-99.99,,2013-01-16 18:03:00,
2013-01-16 13:13:00,37.0,36.0,-100.00,NW,320,5.0,7.0,99,0.00,,,-99.99,,2013-01-16 18:13:00,
2013-01-16 13:23:00,37.0,36.0,-100.00,NW,320,5.0,7.0,99,0.00,,,-99.99,,2013-01-16 18:23:00,
2013-01-16 13:33:00,37.0,37.0,-100.00,West,280,6.0,12.0,99,0.00,,,-99.99,,2013-01-16 18:33:00,
2013-01-16 13:43:00,37.0,37.0,-100.00,West,280,1.0,7.0,99,0.00,,,-99.99,,2013-01-16 18:43:00,
2013-01-16 13:53:00,37.0,37.0,-100.00,NNW,340,1.0,7.0,99,0.00,,,-99.99,,2013-01-16 18:53:00,
2013-01-16 14:03:00,37.0,37.0,-100.00,NNW,340,1.0,7.0,99,0.00,,,-99.99,,2013-01-16 19:03:00,
2013-01-16 14:13:00,37.0,37.0,-100.00,West,275,1.0,8.0,99,0.00,,,-99.99,,2013-01-16 19:13:00,
2013-01-16 14:23:00,38.0,37.0,-100.00,North,5,0.0,4.0,99,0.00,,,-99.99,,2013-01-16 19:23:00,
2013-01-16 14:33:00,38.0,37.0,-100.00,North,5,0.0,4.0,99,0.00,,,-99.99,,2013-01-16 19:33:00,
2013-01-16 14:43:00,37.0,37.0,-100.00,South,190,0.0,6.0,99,0.00,,,-99.99,,2013-01-16 19:43:00,
2013-01-16 14:52:00,38.0,37.0,-100.00,South,190,0.0,0.0,99,0.00,,,-99.99,,2013-01-16 19:52:00,
2013-01-16 15:03:00,38.0,37.0,-100.00,South,190,0.0,0.0,99,0.00,,,-99.99,,2013-01-16 20:03:00,
2013-01-16 15:12:00,38.0,37.0,-100.00,South,190,0.0,0.0,99,0.00,,,-99.99,,2013-01-16 20:12:00,
2013-01-16 15:23:00,38.0,37.0,-100.00,SW,220,0.0,5.0,99,0.00,,,-99.99,,2013-01-16 20:23:00,
2013-01-16 15:33:00,38.0,37.0,-100.00,SW,220,0.0,5.0,99,0.00,,,-99.99,,2013-01-16 20:33:00,
2013-01-16 15:42:00,38.0,37.0,-100.00,SW,235,0.0,0.0,99,0.00,,,-99.99,,2013-01-16 20:42:00,
2013-01-16 15:53:00,38.0,37.0,-100.00,SSW,195,0.0,4.0,99,0.00,,,-99.99,,2013-01-16 20:53:00,
2013-01-16 16:03:00,38.0,37.0,-100.00,SSW,195,0.0,4.0,99,0.00,,,-99.99,,2013-01-16 21:03:00,
2013-01-16 16:12:00,38.0,37.0,-100.00,SW,235,0.0,6.0,99,0.00,,,-99.99,,2013-01-16 21:12:00,
2013-01-16 16:22:00,38.0,37.0,-100.00,SW,220,0.0,2.0,99,0.00,,,-99.99,,2013-01-16 21:22:00,
2013-01-16 16:33:00,38.0,37.0,-100.00,SW,220,0.0,2.0,99,0.00,,,-99.99,,2013-01-16 21:33:00,
2013-01-16 16:43:00,38.0,37.0,-100.00,WSW,255,0.0,4.0,99,0.00,,,-99.99,,2013-01-16 21:43:00,
2013-01-16 16:52:00,38.0,37.0,-100.00,SW,220,0.0,8.0,99,0.00,,,-99.99,,2013-01-16 21:52:00,
2013-01-16 17:03:00,38.0,37.0,-100.00,SW,220,0.0,8.0,99,0.00,,,-99.99,,2013-01-16 22:03:00,
2013-01-16 17:12:00,38.0,38.0,-100.00,West,260,1.0,6.0,99,0.00,,,-99.99,,2013-01-16 22:12:00,
2013-01-16 17:23:00,38.0,38.0,-100.00,West,260,1.0,6.0,99,0.00,,,-99.99,,2013-01-16 22:23:00,
2013-01-16 17:33:00,38.0,38.0,-100.00,West,260,1.0,6.0,99,0.00,,,-99.99,,2013-01-16 22:33:00,
2013-01-16 17:43:00,38.0,38.0,-100.00,SSW,200,1.0,3.0,99,0.00,,,-99.99,,2013-01-16 22:43:00,
2013-01-16 17:52:00,38.0,37.0,-100.00,SW,230,0.0,4.0,99,0.00,,,-99.99,,2013-01-16 22:52:00,
2013-01-16 18:03:00,38.0,37.0,-100.00,SW,230,0.0,4.0,99,0.00,,,-99.99,,2013-01-16 23:03:00,
2013-01-16 18:12:00,38.0,38.0,-100.00,West,280,1.0,5.0,99,0.00,,,-99.99,,2013-01-16 23:12:00,
2013-01-16 18:23:00,38.0,38.0,-100.00,SSE,160,0.0,2.0,99,0.00,,,-99.99,,2013-01-16 23:23:00,
2013-01-16 18:33:00,38.0,38.0,-100.00,SSE,160,0.0,2.0,99,0.00,,,-99.99,,2013-01-16 23:33:00,
2013-01-16 18:43:00,38.0,38.0,-100.00,SW,220,0.0,6.0,99,0.00,,,-99.99,,2013-01-16 23:43:00,
2013-01-16 18:53:00,38.0,38.0,-100.00,ESE,115,0.0,4.0,99,0.00,,,-99.99,,2013-01-16 23:53:00,
2013-01-16 19:02:00,38.0,38.0,-100.00,ESE,115,0.0,4.0,99,0.00,,,-99.99,,2013-01-17 00:02:00,
2013-01-16 19:12:00,38.0,38.0,-100.00,SW,230,0.0,2.0,99,0.00,,,-99.99,,2013-01-17 00:12:00,
2013-01-16 19:22:00,38.0,38.0,-100.00,SW,230,0.0,2.0,99,0.00,,,-99.99,,2013-01-17 00:22:00,
2013-01-16 19:32:00,38.0,38.0,-100.00,NW,310,0.0,6.0,99,0.00,,,-99.99,,2013-01-17 00:32:00,
2013-01-16 19:42:00,38.0,38.0,-100.00,West,265,0.0,5.0,99,0.00,,,-99.99,,2013-01-17 00:42:00,
2013-01-16 19:53:00,38.0,38.0,-100.00,ESE,115,0.0,3.0,99,0.00,,,-99.99,,2013-01-17 00:53:00,
2013-01-16 20:02:00,38.0,38.0,-100.00,ESE,115,0.0,3.0,99,0.00,,,-99.99,,2013-01-17 01:02:00,
2013-01-16 20:12:00,38.0,38.0,-100.00,West,265,0.0,4.0,99,0.00,,,-99.99,,2013-01-17 01:12:00,
2013-01-16 20:22:00,38.0,38.0,-100.00,South,185,0.0,0.0,99,0.00,,,-99.99,,2013-01-17 01:22:00,
2013-01-16 20:33:00,38.0,38.0,-100.00,South,185,0.0,0.0,99,0.00,,,-99.99,,2013-01-17 01:33:00,
2013-01-16 20:42:00,39.0,38.0,-100.00,SSW,210,0.0,6.0,99,0.00,,,-99.99,,2013-01-17 01:42:00,
2013-01-16 20:52:00,39.0,38.0,-100.00,SSE,150,0.0,4.0,99,0.00,,,-99.99,,2013-01-17 01:52:00,
2013-01-16 21:02:00,39.0,38.0,-100.00,SSE,150,0.0,4.0,99,0.00,,,-99.99,,2013-01-17 02:02:00,
2013-01-16 21:12:00,39.0,39.0,-100.00,WNW,295,1.0,3.0,99,0.00,,,-99.99,,2013-01-17 02:12:00,
2013-01-16 21:22:00,39.0,39.0,-100.00,SE,125,1.0,4.0,99,0.00,,,-99.99,,2013-01-17 02:22:00,
2013-01-16 21:32:00,39.0,39.0,-100.00,SE,125,1.0,4.0,99,0.00,,,-99.99,,2013-01-17 02:32:00,
2013-01-16 21:42:00,39.0,39.0,-100.00,SE,125,1.0,4.0,99,0.00,,,-99.99,,2013-01-17 02:42:00,
2013-01-16 21:52:00,39.0,39.0,-100.00,SE,125,1.0,4.0,99,0.00,,,-99.99,,2013-01-17 02:52:00,
2013-01-16 22:03:00,39.0,39.0,-100.00,South,185,0.0,2.0,99,0.00,,,-99.99,,2013-01-17 03:03:00,
2013-01-16 22:12:00,39.0,39.0,-100.00,SW,220,0.0,2.0,99,0.00,,,-99.99,,2013-01-17 03:12:00,
2013-01-16 22:22:00,39.0,39.0,-100.00,WNW,290,0.0,6.0,99,0.00,,,-99.99,,2013-01-17 03:22:00,
2013-01-16 22:33:00,39.0,39.0,-100.00,WNW,290,0.0,6.0,99,0.00,,,-99.99,,2013-01-17 03:33:00,
2013-01-16 22:42:00,40.0,39.0,-100.00,ENE,75,3.0,6.0,99,0.00,,,-99.99,,2013-01-17 03:42:00,
2013-01-16 22:52:00,40.0,39.0,-100.00,ENE,75,3.0,6.0,99,0.00,,,-99.99,,2013-01-17 03:52:00,
2013-01-16 23:02:00,40.0,39.0,-100.00,ENE,75,3.0,6.0,99,0.00,,,-99.99,,2013-01-17 04:02:00,
2013-01-16 23:12:00,40.0,39.0,-100.00,ENE,75,1.0,2.0,99,0.00,,,-99.99,,2013-01-17 04:12:00,
2013-01-16 23:22:00,39.0,39.0,-100.00,SSE,155,0.0,2.0,99,0.00,,,-99.99,,2013-01-17 04:22:00,
2013-01-16 23:33:00,39.0,39.0,-100.00,SSE,155,0.0,2.0,99,0.00,,,-99.99,,2013-01-17 04:33:00,
2013-01-16 23:42:00,40.0,39.0,-100.00,West,260,0.0,5.0,99,0.00,,,-99.99,,2013-01-17 04:42:00,
2013-01-16 23:53:00,40.0,39.0,-100.00,North,5,0.0,6.0,99,0.00,,,-99.99,,2013-01-17 04:53:00,